Regional Weather Roundup
Issued by NWS

Home | Current Version | Previous Version | Text Only | Print | Product List | Glossary On
Versions: 1 2 3 4 5 6 7 8 9 10 11 12 13 14 15 16 17 18 19 20 21 22 23 24 25 26 27 28 29 30 31 32 33 34 35 36 37 38 39 40 41 42 43 44 45 46 47 48 49 50
000
ASUS43 KMKX 221000
RWRWI

WISCONSIN REGIONAL WEATHER ROUNDUP
NATIONAL WEATHER SERVICE MILWAUKEE/SULLIVAN WI
400 AM CST SAT NOV 22 2014

NOTE: "FAIR" INDICATES FEW OR NO CLOUDS BELOW 12,000 FEET WITH NO
SIGNIFICANT WEATHER AND/OR OBSTRUCTIONS TO VISIBILITY.

WIZ001-002-006>008-014>016-023>028-221100-
NORTHWEST WISCONSIN

CITY           SKY/WX    TMP DP  RH WIND       PRES   REMARKS
SUPERIOR ARPT  PTCLDY    31  26  83 SW14      29.73F WCI  20
ASHLAND        CLOUDY    33  28  81 SW13G21   29.75F WCI  24
HAYWARD        CLOUDY    33  28  81 SW10      29.77F WCI  25
SIREN          CLOUDY    35  31  86 SW12G20   29.78F WCI  26
CUMBERLAND     CLOUDY    32  32 100 SW12      29.80F FOG     WCI  23
RICE LAKE      CLOUDY    34  31  89 S7        29.83F FOG     WCI  28
CHETEK         CLOUDY    33  31  92 S8        29.83F FOG     WCI  26
LADYSMITH      CLOUDY    32  29  90 S9        29.83F FOG     WCI  24
EAU CLAIRE     NOT AVBL
MENOMONIE      CLOUDY    35  31  87 S10       29.86F FOG     WCI  27
NEW RICHMOND   CLOUDY    35  33  95 SW13G18   29.82F FOG     WCI  26
OSCEOLA        CLOUDY    35  34  96 S8        29.83F WCI  29
$$

WIZ003>005-009-010-017-018-221100-
NORTH CENTRAL WISCONSIN

CITY           SKY/WX    TMP DP  RH WIND       PRES   REMARKS
MANITOWISH WTR CLOUDY    29  27  92 SW10G17   29.77F WCI  20
ARBOR VITAE    CLOUDY    32  28  87 SW12G20   29.78F WCI  23
WOODRUFF       CLOUDY    32  28  87 SW12G20   29.78F WCI  23
RHINELANDER    CLOUDY    28  24  85 SW13G23   29.80F WCI  17
EAGLE RIVER    CLOUDY    29  24  82 SW12G22   29.78F WCI  19
LAND O LAKES   CLOUDY    29  26  86 SW8G18    29.76F WCI  21
PHILLIPS       CLOUDY    29  27  92 SW12G18   29.79F WCI  20
TOMAHAWK       CLOUDY    29  25  84 CALM      29.82F
MEDFORD        CLOUDY    30  27  87 SW12      29.84S WCI  20
MERRILL        CLOUDY    30  26  84 SW9       29.84F WCI  22
$$

WIZ029-030-035-036-043>047-221100-
CENTRAL WISCONSIN

CITY           SKY/WX    TMP DP  RH WIND       PRES   REMARKS
WAUSAU         CLOUDY    31  26  82 SW13      29.85F WCI  21
MOSINEE        CLOUDY    32  28  86 S14       29.88F WCI  22
MARSHFIELD     CLOUDY    32  26  78 SW10      29.86F WCI  24
STEVENS POINT  CLOUDY    30  24  76 SW12G17   29.90F WCI  21
WAUPACA        CLOUDY    35  26  69 S10       29.92F WCI  27
WAUTOMA        CLOUDY    34  27  75 SW12      29.94F WCI  25
WISC RAPIDS    CLOUDY    32  25  75 SW12      29.91F WCI  23
CAMP DOUGLAS   NOT AVBL
$$

WIZ011>013-019>022-031-037>040-048>050-221100-
NORTHEAST WISCONSIN

CITY           SKY/WX    TMP DP  RH WIND       PRES   REMARKS
ANTIGO         CLOUDY    28  25  86 SW15      29.83F WCI  17
SHAWANO        CLOUDY    34  24  67 SW7       29.91F WCI  28
OCONTO         CLOUDY    32  22  66 SW12      29.90F WCI  23
STURGEON BAY   CLOUDY    34  21  60 SW16      29.90F WCI  23
GREEN BAY      CLOUDY    33  25  72 SW16G22   29.92F WCI  23
MANITOWOC      NOT AVBL
APPLETON       CLOUDY    32  27  80 SW16      29.93F WCI  21
CLINTONVILLE   CLOUDY    32  25  74 SW10      29.91F WCI  24
OSHKOSH        CLOUDY    32  25  75 SW14G24   29.94F WCI  22
$$

WIZ032>034-041-042-053>061-221100-
SOUTHWEST WISCONSIN

CITY           SKY/WX    TMP DP  RH WIND       PRES   REMARKS
LA CROSSE      CLOUDY    34  30  85 S9        29.91F WCI  27
SPARTA         CLOUDY    33  29  87 SW7       29.93F WCI  26
VIROQUA        CLOUDY    31  31 100 SW12      29.93F WCI  22
BOSCOBEL       CLOUDY    34  30  85 SW6       29.98F FOG     WCI  29
PRAIRIE DU CHI CLOUDY    34  29  84 S5        29.98F WCI  30
PLATTEVILLE    CLOUDY    32  31  96 S12       30.00F WCI  23
$$

WIZ056-057-062-063-064-067-068-221100-
SOUTH CENTRAL WISCONSIN

CITY           SKY/WX    TMP DP  RH WIND       PRES   REMARKS
REEDSBURG      CLOUDY    31  29  93 SW12      29.96F FOG     WCI  22
BARABOO/DELLS  CLOUDY    32  28  86 SW10G16   29.95F FOG     WCI  24
LONE ROCK      CLOUDY    36  29  75 SW6       29.99F WCI  31
MINERAL POINT  CLOUDY    32  32 100 S10       29.97F FOG     WCI  24
MADISON        CLOUDY    32  29  88 S12       29.99F WCI  23
MIDDLETON      CLOUDY    33  30  88 SW12G18   29.99F WCI  25
WATERTOWN      CLOUDY    31  31  99 SW14      29.99F WCI  21
MONROE         CLOUDY    32  32 100 S14       30.00F FOG     WCI  22
JANESVILLE     LGT RAIN  32  32 100 S6        30.02F WCI  26
$$

WIZ051-052-058>065-066-070>072-221100-
SOUTHEAST WISCONSIN

CITY           SKY/WX    TMP DP  RH WIND       PRES   REMARKS
MILWAUKEE      CLOUDY    33  28  81 SW18      30.00F WCI  22
WAUKESHA       CLOUDY    30  28  93 SW9       30.01F WCI  22
MILWAUKEE/TIMM MIX PCPN  32  28  86 SW13G23   30.01F WCI  22
RACINE         LGT RAIN  33  28  81 SW13G20   30.04F WCI  24
BURLINGTON     LGT SNOW  31  29  93 SW10      30.02F WCI  22
KENOSHA        RAIN      33  29  85 SW14      30.03F FOG     WCI  23
FOND DU LAC    CLOUDY    32  24  72 SW14G24   29.96F WCI  22
SHEBOYGAN      CLOUDY    34  26  72 SW15      29.96F WCI  24
WEST BEND      MIX PCPN  32  27  80 SW13      29.98F WCI  22
JUNEAU         CLOUDY    31  26  84 S15       30.00F WCI  20
$$

LSZ147-162-221100-
LAKE SUPERIOR

STATION/POSITION TIME  TEMP    WIND        PRES    WAVE
                       AIR SEA DIR/SP/G            HT/PER
                 (UTC) (F)     (DEG/KT/KT) (MB)    (FT/S)
DEVILS ISLAND    0900   35     230/ 21/ 27 1006.8F
PORT WING        0940   34     200/ 11/ 18 1006.8F
SAXON HARBOR     0920   33     200/ 11/ 21 1007.1F
$$

LMZ867-665-643>646-221100-
LAKE MICHIGAN

STATION/POSITION TIME  TEMP    WIND        PRES    WAVE
                       AIR SEA DIR/SP/G            HT/PER
                 (UTC) (F)     (DEG/KT/KT) (MB)    (FT/S)
CHAMBERS ISLAND  0900   34     200/ 13/ 24 1012.9F
N MID LAKE BUOY  0850   38 42  220/ 31/ 37 1012.9F  15/ 9
NORTHPORT PIER   0915   32     180/  5/ 16 1012.5F
SISTER BAY       0843          210/ 18/ 26   N/A
ALGOMA LAKESHORE 0813          250/ 12/ 13   N/A
KEWAUNEE LAKESHO 0900   34     220/ 11/ 17 1013.6F
SHEBOYGAN LAKESH 0900   35 36  220/ 19/ 23 1016.6F
PORT WASHINGTON  0900   33     220/  7/ 12 1017.3F
ATWATER BUOY     0900   36      40/  2/  8 1018.6F
MILWAUKEE LAKESH 0900   33     230/ 19/ 23   N/A
S MID LAKE BUOY  0850   40 43  200/ 23/ 29 1019.2F   7/ 7
KENOSHA   LAKESH 0900   34     220/ 14/ 20 1017.9F
$$

TC  - TEMPERATURE IN CELSIUS
VSB - VISIBILITY IN STATUTE MILES
WCI - WIND CHILL INDEX
HX  - HEAT INDEX




USA.gov is the U.S. government's official web portal to all federal, state and local government web resources and services.